Manistique, MI

6:28 PM EST on February 27, 2017 (GMT -0500)
Schoolcraft County

Weather History for KISQ - November, 2012

Change the Weather History Date:

Wednesday, November 14, 2012

  Actual Average Record
Temperature  
Mean Temperature 38 °F -  
Max Temperature 44 °F 40 °F 62 °F (1958)
Min Temperature 33 °F 26 °F 4 °F (1986)
Degree Days  
Heating Degree Days 26    
Moisture  
Dew Point 32 °F    
Average Humidity 73    
Maximum Humidity 81    
Minimum Humidity 49    
Precipitation  
Precipitation 0.00 in - - ()
Sea Level Pressure  
Sea Level Pressure 30.39 in    
Wind  
Wind Speed 8 mph (SSW)    
Max Wind Speed 20 mph    
Max Gust Speed 30 mph    
Visibility 10 miles    
Events      
Averages and records for this station are not official NWS values.
T = Trace of Precipitation, MM = Missing Value Source: NWS Daily Summary

Daily Weather History Graph

Daily Weather History Graph

Search for Another Location

Airport or City:

Trip Planner

Search our weather history database for the weather conditions in past years. The results will help you decide how hot, cold, wet, or windy it might be!

Date:

Astronomy

Nov. 14, 2012 Rise Set
Actual Time 7:44 AM EST 5:13 PM EST
Civil Twilight 7:11 AM EST 5:45 PM EST
Nautical Twilight 6:35 AM EST 6:22 PM EST
Astronomical Twilight 6:00 AM EST 6:57 PM EST
Moon 8:36 AM EST (11/14) 5:58 PM EST (11/14)
Length of Visible Light 10h 33m
Length of Day
9h 29m
New Moon, 1% of the Moon is Illuminated
Nov 14
New Moon
Nov 20
First Quarter
Nov 28
Full
Dec 6
Last Quarter
Dec 13
New

Hourly Weather History & Observations

Time (EST) Temp. Windchill Dew Point Humidity Pressure Visibility Wind Dir Wind Speed Gust Speed Precip Events Conditions
12:14 AM 35.6 °F 30.7 °F 28.4 °F 75% 30.41 in 10.0 mi West 5.8 mph - N/A   Clear
12:34 AM 33.8 °F 30.8 °F 28.4 °F 81% 30.42 in 10.0 mi WSW 3.5 mph - N/A   Scattered Clouds
12:54 AM 33.8 °F 28.6 °F 26.6 °F 75% 30.42 in 10.0 mi WSW 5.8 mph - N/A   Clear
1:15 AM 33.8 °F - 28.4 °F 81% 30.42 in 10.0 mi Calm Calm - N/A   Scattered Clouds
1:34 AM 33.8 °F - 28.4 °F 81% 30.42 in 10.0 mi Calm Calm - N/A   Clear
1:55 AM 33.8 °F - 26.6 °F 75% 30.42 in 10.0 mi Calm Calm - N/A   Clear
2:15 AM 33.8 °F - 28.4 °F 81% 30.42 in 10.0 mi Calm Calm - N/A   Clear
2:34 AM 33.8 °F - 26.6 °F 75% 30.42 in 10.0 mi Calm Calm - N/A   Clear
2:55 AM 33.8 °F - 26.6 °F 75% 30.43 in 10.0 mi Calm Calm - N/A   Clear
3:14 AM 33.8 °F 30.8 °F 28.4 °F 81% 30.43 in 10.0 mi WSW 3.5 mph - N/A   Clear
3:35 AM 35.6 °F - 28.4 °F 75% 30.43 in 10.0 mi Calm Calm - N/A   Clear
3:55 AM 35.6 °F 31.7 °F 28.4 °F 75% 30.42 in 10.0 mi WSW 4.6 mph - N/A   Clear
4:14 AM 35.6 °F 32.8 °F 28.4 °F 75% 30.42 in 10.0 mi WSW 3.5 mph - N/A   Clear
4:35 AM 37.4 °F 30.3 °F 28.4 °F 70% 30.42 in 10.0 mi SW 10.4 mph - N/A   Clear
4:54 AM 35.6 °F 30.7 °F 28.4 °F 75% 30.43 in 10.0 mi West 5.8 mph - N/A   Scattered Clouds
5:15 AM 35.6 °F 32.8 °F 26.6 °F 70% 30.43 in 10.0 mi West 3.5 mph - N/A   Mostly Cloudy
5:34 AM 33.8 °F 30.8 °F 26.6 °F 75% 30.43 in 10.0 mi West 3.5 mph - N/A   Overcast
5:55 AM 33.8 °F 30.8 °F 26.6 °F 75% 30.43 in 10.0 mi West 3.5 mph - N/A   Overcast
6:14 AM 33.8 °F 30.8 °F 26.6 °F 75% 30.43 in 10.0 mi West 3.5 mph - N/A   Overcast
6:35 AM 33.8 °F - 26.6 °F 75% 30.43 in 10.0 mi Calm Calm - N/A   Mostly Cloudy
6:55 AM 35.6 °F - 26.6 °F 70% 30.43 in 10.0 mi Calm Calm - N/A   Overcast
7:14 AM 35.6 °F 32.8 °F 28.4 °F 75% 30.43 in 10.0 mi WSW 3.5 mph - N/A   Mostly Cloudy
7:35 AM 37.4 °F 32.1 °F 26.6 °F 65% 30.43 in 10.0 mi SSW 6.9 mph - N/A   Overcast
7:55 AM 37.4 °F 32.8 °F 26.6 °F 65% 30.43 in 10.0 mi SSW 5.8 mph - N/A   Overcast
8:14 AM 37.4 °F 31.4 °F 28.4 °F 70% 30.43 in 10.0 mi SSW 8.1 mph - N/A   Overcast
8:35 AM 39.2 °F 33.6 °F 28.4 °F 65% 30.43 in 10.0 mi SSW 8.1 mph - N/A   Overcast
8:54 AM 39.2 °F 33.6 °F 28.4 °F 65% 30.43 in 10.0 mi South 8.1 mph - N/A   Mostly Cloudy
9:14 AM 39.2 °F 33.6 °F 26.6 °F 61% 30.43 in 10.0 mi SSW 8.1 mph - N/A   Mostly Cloudy
9:35 AM 41.0 °F 35.2 °F 24.8 °F 53% 30.43 in 10.0 mi SSW 9.2 mph - N/A   Mostly Cloudy
9:54 AM 41.0 °F 34.3 °F 24.8 °F 53% 30.43 in 10.0 mi South 11.5 mph - N/A   Mostly Cloudy
10:15 AM 42.8 °F 37.0 °F 24.8 °F 49% 30.43 in 10.0 mi South 10.4 mph 17.3 mph N/A   Overcast
10:35 AM 42.8 °F 35.8 °F 24.8 °F 49% 30.43 in 10.0 mi South 13.8 mph 18.4 mph N/A   Overcast
10:54 AM 42.8 °F 36.2 °F 26.6 °F 53% 30.43 in 10.0 mi South 12.7 mph 17.3 mph N/A   Overcast
11:15 AM 42.8 °F 35.4 °F 33.8 °F 70% 30.42 in 10.0 mi South 15.0 mph 19.6 mph N/A   Overcast
11:34 AM 42.8 °F 35.8 °F 33.8 °F 70% 30.42 in 10.0 mi South 13.8 mph 21.9 mph N/A   Mostly Cloudy
11:55 AM 42.8 °F 35.4 °F 33.8 °F 70% 30.41 in 10.0 mi South 15.0 mph 19.6 mph N/A   Mostly Cloudy
12:14 PM 42.8 °F 35.4 °F 35.6 °F 76% 30.40 in 10.0 mi South 15.0 mph 20.7 mph N/A   Overcast
12:34 PM 42.8 °F 35.8 °F 35.6 °F 76% 30.40 in 10.0 mi South 13.8 mph 20.7 mph N/A   Overcast
12:55 PM 42.8 °F 36.2 °F 35.6 °F 76% 30.39 in 10.0 mi South 12.7 mph - N/A   Overcast
1:14 PM 42.8 °F 35.4 °F 35.6 °F 76% 30.39 in 10.0 mi South 15.0 mph 19.6 mph N/A   Overcast
1:35 PM 42.8 °F 35.4 °F 35.6 °F 76% 30.38 in 10.0 mi South 15.0 mph 21.9 mph N/A   Overcast
1:54 PM 42.8 °F 34.8 °F 35.6 °F 76% 30.38 in 10.0 mi South 17.3 mph - N/A   Overcast
2:15 PM 42.8 °F 35.1 °F 35.6 °F 76% 30.37 in 10.0 mi South 16.1 mph 24.2 mph N/A   Overcast
2:35 PM 42.8 °F 34.5 °F 35.6 °F 76% 30.37 in 10.0 mi South 18.4 mph 24.2 mph N/A   Overcast
2:54 PM 42.8 °F 35.4 °F 35.6 °F 76% 30.37 in 10.0 mi South 15.0 mph 23.0 mph N/A   Overcast
3:15 PM 42.8 °F 35.4 °F 35.6 °F 76% 30.36 in 10.0 mi South 15.0 mph 24.2 mph N/A   Overcast
3:34 PM 42.8 °F 35.4 °F 35.6 °F 76% 30.36 in 10.0 mi South 15.0 mph - N/A   Overcast
3:55 PM 42.8 °F 35.4 °F 35.6 °F 76% 30.35 in 10.0 mi South 15.0 mph 23.0 mph N/A   Overcast
4:14 PM 42.8 °F 34.5 °F 35.6 °F 76% 30.35 in 10.0 mi South 18.4 mph 24.2 mph N/A   Overcast
4:35 PM 42.8 °F 34.5 °F 35.6 °F 76% 30.35 in 10.0 mi South 18.4 mph 26.5 mph N/A   Overcast
4:55 PM 44.6 °F 37.8 °F 35.6 °F 71% 30.35 in 10.0 mi South 15.0 mph 26.5 mph N/A   Overcast
5:14 PM 44.6 °F 37.2 °F 37.4 °F 76% 30.34 in 10.0 mi South 17.3 mph 25.3 mph N/A   Overcast
5:35 PM 44.6 °F 37.4 °F 35.6 °F 71% 30.34 in 10.0 mi South 16.1 mph 26.5 mph N/A   Overcast
5:54 PM 44.6 °F 36.9 °F 35.6 °F 71% 30.34 in 10.0 mi South 18.4 mph 24.2 mph N/A   Overcast
6:15 PM 44.6 °F 36.9 °F 37.4 °F 76% 30.33 in 10.0 mi South 18.4 mph 29.9 mph N/A   Overcast
6:35 PM 44.6 °F 37.8 °F 37.4 °F 76% 30.33 in 10.0 mi South 15.0 mph 25.3 mph N/A   Overcast
6:54 PM 44.6 °F 36.9 °F 37.4 °F 76% 30.33 in 10.0 mi South 18.4 mph 27.6 mph N/A   Overcast
7:15 PM 42.8 °F 34.5 °F 37.4 °F 81% 30.34 in 10.0 mi South 18.4 mph 24.2 mph N/A   Overcast
7:34 PM 42.8 °F 34.5 °F 35.6 °F 76% 30.34 in 10.0 mi South 18.4 mph 26.5 mph N/A   Overcast
7:55 PM 42.8 °F 34.8 °F 35.6 °F 76% 30.34 in 10.0 mi South 17.3 mph 27.6 mph N/A   Overcast
8:14 PM 42.8 °F 34.3 °F 35.6 °F 76% 30.34 in 10.0 mi SSW 19.6 mph 25.3 mph N/A   Overcast
8:34 PM 42.8 °F 35.1 °F 33.8 °F 70% 30.34 in 10.0 mi South 16.1 mph 24.2 mph N/A   Overcast
8:55 PM 42.8 °F 35.8 °F 35.6 °F 76% 30.34 in 10.0 mi South 13.8 mph 24.2 mph N/A   Overcast
9:35 PM 42.8 °F 35.1 °F 35.6 °F 76% 30.33 in 10.0 mi South 16.1 mph 20.7 mph N/A   Overcast
9:55 PM 42.8 °F 35.4 °F 35.6 °F 76% 30.33 in 10.0 mi South 15.0 mph 24.2 mph N/A   Overcast
10:14 PM 42.8 °F 36.6 °F 35.6 °F 76% 30.32 in 10.0 mi South 11.5 mph 24.2 mph N/A   Overcast
10:35 PM 42.8 °F 35.1 °F 37.4 °F 81% 30.32 in 10.0 mi South 16.1 mph 21.9 mph N/A   Overcast
10:54 PM 44.6 °F 37.8 °F 37.4 °F 76% 30.31 in 10.0 mi SSW 15.0 mph 23.0 mph N/A   Overcast
11:15 PM 44.6 °F 38.1 °F 37.4 °F 76% 30.31 in 10.0 mi SSW 13.8 mph 24.2 mph N/A   Overcast
11:35 PM 44.6 °F 38.8 °F 37.4 °F 76% 30.31 in 10.0 mi SSW 11.5 mph 20.7 mph N/A   Overcast
11:54 PM 44.6 °F 38.1 °F 37.4 °F 76% 30.31 in 10.0 mi SSW 13.8 mph 25.3 mph N/A   Overcast